Location: ?ernice
(48.8383°N, 14.3803°E)
Time: 05:28:48
(UTC+00:00)

ALOS - Pass Details

Date: 23 May 2024
Orbit: 673 x 676 km, 98.0° (Epoch: 15 June)

Event Time Altitude Azimuth Distance (km) Brightness Sun altitude
Rises 01:20:50 0° 19° (NNE) 3,039 7.3 -13.7°
Reaches altitude 10° 01:23:12 10° 27° (NNE) 2,119 6.2 -13.5°
Maximum altitude 01:27:34 40° 98° (E) 993 3.3 -13.1°
Drops below altitude 10° 01:31:54 10° 168° (SSE) 2,101 4.4 -12.6°
Enters shadow 01:32:25 - 170° (S) 2,299 4.6 -12.6°
